| time (UTC) | temp F | wind direction | speed MPH | gust MPH | rain 1hr in | rain 24hr in | rain mn in | humidity % | barometer mb |
| 20260507113611 | 41 | 223 | 2.0 | 5.0 | 0.00 | 0.62 | 0.00 | 79 | 1014.0 |
| 20260507113111 | 40 | 213 | 1.0 | 2.0 | 0.00 | 0.62 | 0.00 | 80 | 1014.1 |
| 20260507112612 | 40 | 209 | 1.0 | 3.0 | 0.00 | 0.62 | 0.00 | 80 | 1013.8 |
| 20260507111612 | 40 | 221 | 2.0 | 3.0 | 0.00 | 0.63 | 0.00 | 80 | 1013.8 |
| 20260507111112 | 40 | 225 | 1.0 | 2.0 | 0.00 | 0.64 | 0.00 | 80 | 1013.8 |
| 20260507110611 | 40 | 193 | 1.0 | 3.0 | 0.00 | 0.64 | 0.00 | 81 | 1013.7 |
| 20260507110112 | 40 | 172 | 1.0 | 3.0 | 0.00 | 0.65 | 0.00 | 81 | 1014.0 |
| 20260507105612 | 40 | 236 | 3.0 | 5.0 | 0.00 | 0.66 | 0.00 | 81 | 1013.7 |
| 20260507105112 | 40 | 194 | 1.0 | 3.0 | 0.00 | 0.66 | 0.00 | 81 | 1013.8 |
| 20260507104611 | 40 | 183 | 2.0 | 2.0 | 0.00 | 0.67 | 0.00 | 81 | 1013.6 |
| 20260507104111 | 40 | 203 | 1.0 | 2.0 | 0.00 | 0.68 | 0.00 | 81 | 1013.5 |
| 20260507103612 | 40 | 217 | 1.0 | 2.0 | 0.00 | 0.69 | 0.00 | 81 | 1013.6 |
| 20260507103112 | 40 | 173 | 1.0 | 2.0 | 0.00 | 0.69 | 0.00 | 81 | 1013.6 |
| 20260507102612 | 40 | 201 | 1.0 | 2.0 | 0.00 | 0.70 | 0.00 | 81 | 1013.6 |
| 20260507102112 | 40 | 208 | 1.0 | 2.0 | 0.00 | 0.71 | 0.00 | 81 | 1013.3 |
| 20260507101611 | 40 | 205 | 0.0 | 2.0 | 0.00 | 0.72 | 0.00 | 81 | 1013.4 |
| 20260507101111 | 40 | 204 | 1.0 | 2.0 | 0.00 | 0.72 | 0.00 | 81 | 1013.3 |
| 20260507100612 | 40 | 200 | 1.0 | 2.0 | 0.00 | 0.74 | 0.00 | 81 | 1013.4 |
| 20260507100112 | 40 | 219 | 0.0 | 2.0 | 0.00 | 0.75 | 0.00 | 81 | 1013.3 |
| 20260507095612 | 40 | 201 | 1.0 | 2.0 | 0.00 | 0.75 | 0.00 | 81 | 1013.4 |
| 20260507095112 | 40 | 197 | 1.0 | 2.0 | 0.00 | 0.76 | 0.00 | 81 | 1013.1 |
| 20260507094612 | 41 | 209 | 2.0 | 2.0 | 0.00 | 0.78 | 0.00 | 81 | 1013.3 |
| 20260507023112 | 47 | 193 | 0.0 | 0.0 | 0.00 | 0.79 | 0.00 | 61 | 1014.3 |
| 20260507022612 | 47 | 193 | 0.0 | 0.0 | 0.00 | 0.80 | 0.00 | 61 | 1014.5 |
| 20260507022112 | 47 | 214 | 0.0 | 0.0 | 0.00 | 0.81 | 0.00 | 61 | 1014.4 |
| 20260507021612 | 47 | 199 | 0.0 | 1.0 | 0.00 | 0.83 | 0.00 | 61 | 1014.4 |
| 20260507020612 | 47 | 202 | 0.0 | 0.0 | 0.00 | 0.87 | 0.00 | 60 | 1014.1 |
| 20260507020112 | 47 | 198 | 0.0 | 0.0 | 0.00 | 0.90 | 0.00 | 60 | 1014.3 |
| 20260507015612 | 47 | 194 | 0.0 | 1.0 | 0.00 | 0.91 | 0.00 | 60 | 1014.2 |
| 20260507014112 | 47 | 194 | 0.0 | 0.0 | 0.00 | 0.95 | 0.00 | 60 | 1014.5 |
| 20260507013612 | 47 | 202 | 1.0 | 1.0 | 0.00 | 0.96 | 0.00 | 60 | 1014.2 |
| 20260507013112 | 48 | 197 | 0.0 | 0.0 | 0.00 | 0.97 | 0.00 | 60 | 1014.2 |
| 20260507012612 | 48 | 210 | 0.0 | 1.0 | 0.00 | 0.98 | 0.00 | 60 | 1014.2 |
| 20260507012111 | 48 | 194 | 0.0 | 0.0 | 0.00 | 1.01 | 0.00 | 60 | 1014.1 |
| 20260507011612 | 48 | 197 | 0.0 | 1.0 | 0.00 | 1.02 | 0.00 | 59 | 1014.0 |
| 20260507011112 | 48 | 200 | 0.0 | 1.0 | 0.00 | 1.03 | 0.00 | 59 | 1013.8 |
| 20260507010612 | 48 | 194 | 1.0 | 2.0 | 0.00 | 1.05 | 0.00 | 58 | 1014.0 |
| 20260507005612 | 49 | 195 | 0.0 | 1.0 | 0.00 | 1.09 | 0.00 | 59 | 1013.9 |
| 20260507005111 | 49 | 196 | 0.0 | 1.0 | 0.00 | 1.12 | 0.00 | 58 | 1013.7 |
| 20260507004611 | 49 | 208 | 1.0 | 2.0 | 0.00 | 1.13 | 0.00 | 58 | 1013.9 |
| 20260507004112 | 49 | 198 | 0.0 | 2.0 | 0.00 | 1.15 | 0.00 | 56 | 1013.7 |
| 20260507003612 | 49 | 206 | 0.0 | 1.0 | 0.00 | 1.17 | 0.00 | 55 | 1013.7 |
| 20260507003112 | 49 | 201 | 1.0 | 3.0 | 0.00 | 1.19 | 0.00 | 55 | 1013.7 |
| 20260507002611 | 49 | 287 | 1.0 | 3.0 | 0.00 | 1.21 | 0.00 | 56 | 1013.6 |
| 20260507002112 | 49 | 204 | 0.0 | 5.0 | 0.00 | 1.23 | 0.00 | 57 | 1013.7 |
| 20260507001612 | 49 | 207 | 0.0 | 2.0 | 0.00 | 1.24 | 0.00 | 57 | 1013.7 |
| 20260507001112 | 50 | 207 | 0.0 | 2.0 | 0.00 | 1.24 | 0.00 | 58 | 1013.4 |
| 20260507000611 | 50 | 194 | 0.0 | 2.0 | 0.00 | 1.24 | 0.00 | 59 | 1013.7 |
| 20260507000112 | 50 | 200 | 0.0 | 2.0 | 0.00 | 1.24 | 0.00 | 58 | 1013.7 |
| 20260506235112 | 50 | 187 | 0.0 | 2.0 | 0.00 | 1.24 | 0.00 | 57 | 1013.5 |
| 20260506234612 | 50 | 174 | 1.0 | 2.0 | 0.00 | 1.24 | 0.00 | 56 | 1013.6 |
| 20260506234112 | 50 | 128 | 0.0 | 2.0 | 0.00 | 1.24 | 0.00 | 57 | 1013.8 |
| 20260506233611 | 51 | 213 | 0.0 | 2.0 | 0.00 | 1.25 | 0.00 | 56 | 1013.5 |
| 20260506233111 | 51 | 210 | 1.0 | 3.0 | 0.00 | 1.25 | 0.00 | 56 | 1013.8 |
| 20260506232611 | 51 | 200 | 1.0 | 3.0 | 0.00 | 1.27 | 0.00 | 55 | 1013.8 |
| 20260506231612 | 51 | 299 | 2.0 | 3.0 | 0.00 | 1.29 | 0.00 | 54 | 1013.8 |
| 20260506230612 | 51 | 92 | 2.0 | 6.0 | 0.00 | 1.32 | 0.00 | 53 | 1013.7 |
| 20260506230112 | 51 | 326 | 2.0 | 10.0 | 0.00 | 1.32 | 0.00 | 53 | 1013.6 |
| 20260506225111 | 51 | 268 | 2.0 | 9.0 | 0.00 | 1.33 | 0.00 | 56 | 1013.6 |
| 20260506224612 | 51 | 27 | 5.0 | 9.0 | 0.00 | 1.34 | 0.00 | 55 | 1013.6 |
| 20260506224112 | 51 | 248 | 3.0 | 7.0 | 0.00 | 1.34 | 0.00 | 54 | 1013.5 |
| 20260506223612 | 52 | 193 | 1.0 | 3.0 | 0.00 | 1.35 | 0.00 | 55 | 1013.4 |
| 20260506223112 | 52 | 182 | 0.0 | 3.0 | 0.00 | 1.36 | 0.00 | 57 | 1013.5 |
| 20260506222611 | 52 | 230 | 1.0 | 3.0 | 0.00 | 1.36 | 0.00 | 58 | 1013.7 |
| 20260506221611 | 52 | 342 | 2.0 | 5.0 | 0.00 | 1.37 | 0.00 | 55 | 1013.5 |
| 20260506221112 | 52 | 283 | 3.0 | 7.0 | 0.00 | 1.37 | 0.00 | 56 | 1013.5 |
| 20260506220612 | 53 | 206 | 2.0 | 7.0 | 0.00 | 1.39 | 0.00 | 55 | 1013.3 |
| 20260506215612 | 53 | 327 | 2.0 | 6.0 | 0.00 | 1.44 | 0.00 | 54 | 1013.2 |
| 20260506215112 | 53 | 179 | 2.0 | 5.0 | 0.00 | 1.49 | 0.00 | 53 | 1013.0 |
| 20260506214612 | 53 | 151 | 3.0 | 6.0 | 0.00 | 1.52 | 0.00 | 53 | 1013.3 |
| 20260506214112 | 53 | 243 | 2.0 | 6.0 | 0.00 | 1.55 | 0.00 | 54 | 1013.1 |
| 20260506213111 | 53 | 206 | 1.0 | 5.0 | 0.00 | 1.57 | 0.00 | 52 | 1013.0 |
| 20260506212612 | 53 | 201 | 2.0 | 5.0 | 0.00 | 1.58 | 0.00 | 52 | 1013.0 |
| 20260506212111 | 53 | 226 | 1.0 | 5.0 | 0.00 | 1.58 | 0.00 | 52 | 1012.9 |
| 20260506211611 | 53 | 0 | 2.0 | 6.0 | 0.00 | 1.58 | 0.00 | 50 | 1012.7 |
| 20260506211111 | 54 | 180 | 2.0 | 6.0 | 0.00 | 1.58 | 0.00 | 50 | 1012.8 |
| 20260506210611 | 54 | 223 | 1.0 | 5.0 | 0.00 | 1.58 | 0.00 | 51 | 1012.7 |
| 20260506210112 | 54 | 189 | 3.0 | 5.0 | 0.00 | 1.58 | 0.00 | 52 | 1012.6 |
| 20260506204612 | 54 | 333 | 3.0 | 5.0 | 0.00 | 1.60 | 0.00 | 51 | 1012.6 |
| 20260506204112 | 54 | 93 | 1.0 | 5.0 | 0.00 | 1.61 | 0.00 | 53 | 1012.7 |
| 20260506203612 | 54 | 111 | 2.0 | 5.0 | 0.00 | 1.62 | 0.00 | 53 | 1012.7 |
| 20260506202611 | 54 | 309 | 3.0 | 5.0 | 0.00 | 1.63 | 0.00 | 51 | 1012.9 |
| 20260506202111 | 54 | 196 | 1.0 | 5.0 | 0.00 | 1.63 | 0.00 | 52 | 1012.9 |
| 20260506201612 | 54 | 349 | 2.0 | 3.0 | 0.00 | 1.63 | 0.00 | 52 | 1012.8 |
| 20260506201112 | 54 | 268 | 3.0 | 7.0 | 0.00 | 1.63 | 0.00 | 50 | 1013.1 |
| 20260506200612 | 54 | 141 | 1.0 | 5.0 | 0.00 | 1.63 | 0.00 | 51 | 1012.8 |
| 20260506195111 | 53 | 213 | 3.0 | 7.0 | 0.00 | 1.66 | 0.00 | 49 | 1012.7 |
| 20260506194112 | 54 | 31 | 5.0 | 8.0 | 0.00 | 1.66 | 0.00 | 53 | 1012.5 |
| 20260506192614 | 53 | 29 | 2.0 | 6.0 | 0.00 | 1.66 | 0.00 | 52 | 1012.8 |
| 20260506192113 | 54 | 13 | 2.0 | 5.0 | 0.00 | 1.66 | 0.00 | 53 | 1012.9 |
| 20260506191613 | 54 | 309 | 1.0 | 7.0 | 0.00 | 1.66 | 0.00 | 50 | 1012.8 |
| 20260506191113 | 54 | 155 | 2.0 | 7.0 | 0.00 | 1.66 | 0.00 | 51 | 1012.8 |
| 20260506190613 | 54 | 94 | 1.0 | 5.0 | 0.00 | 1.66 | 0.00 | 53 | 1012.6 |
| 20260506185613 | 54 | 0 | 3.0 | 6.0 | 0.00 | 1.66 | 0.00 | 54 | 1012.5 |
| 20260506184614 | 54 | 293 | 2.0 | 3.0 | 0.00 | 1.67 | 0.00 | 53 | 1012.8 |
| 20260506183613 | 55 | 37 | 4.0 | 7.0 | 0.00 | 1.68 | 0.00 | 52 | 1013.0 |
| 20260506183113 | 56 | 323 | 2.0 | 7.0 | 0.00 | 1.68 | 0.00 | 49 | 1012.8 |
| 20260506182614 | 55 | 190 | 2.0 | 5.0 | 0.00 | 1.68 | 0.00 | 52 | 1012.8 |
| 20260506182113 | 54 | 7 | 4.0 | 8.0 | 0.00 | 1.68 | 0.00 | 54 | 1012.8 |
| 20260506180613 | 55 | 36 | 4.0 | 7.0 | 0.00 | 1.68 | 0.00 | 53 | 1012.4 |
| 20260506180113 | 56 | 91 | 1.0 | 3.0 | 0.00 | 1.68 | 0.00 | 53 | 1012.7 |
| 20260506175613 | 56 | 65 | 4.0 | 6.0 | 0.00 | 1.68 | 0.00 | 48 | 1012.8 |
| 20260506175113 | 57 | 25 | 4.0 | 6.0 | 0.00 | 1.68 | 0.00 | 50 | 1012.9 |
| 20260506174613 | 56 | 272 | 1.0 | 7.0 | 0.00 | 1.68 | 0.00 | 53 | 1012.7 |
| 20260506174113 | 54 | 352 | 3.0 | 8.0 | 0.00 | 1.68 | 0.00 | 54 | 1013.0 |
| 20260506173614 | 54 | 23 | 5.0 | 8.0 | 0.00 | 1.68 | 0.00 | 55 | 1012.8 |
| 20260506173113 | 54 | 346 | 5.0 | 8.0 | 0.00 | 1.68 | 0.00 | 56 | 1012.9 |
| 20260506172113 | 54 | 88 | 4.0 | 6.0 | 0.00 | 1.68 | 0.00 | 55 | 1012.4 |
| 20260506171613 | 55 | 45 | 2.0 | 6.0 | 0.00 | 1.68 | 0.00 | 58 | 1012.8 |
| 20260506171113 | 54 | 207 | 2.0 | 6.0 | 0.00 | 1.68 | 0.00 | 55 | 1012.7 |
| 20260506170613 | 54 | 304 | 3.0 | 13.0 | 0.00 | 1.68 | 0.00 | 55 | 1012.6 |
| 20260506170113 | 54 | 49 | 5.0 | 13.0 | 0.00 | 1.68 | 0.00 | 57 | 1012.8 |
| 20260506165613 | 54 | 317 | 5.0 | 9.0 | 0.00 | 1.68 | 0.00 | 56 | 1012.6 |
| 20260506165113 | 55 | 291 | 2.0 | 7.0 | 0.00 | 1.68 | 0.00 | 58 | 1012.7 |
| 20260506164613 | 55 | 253 | 3.0 | 8.0 | 0.00 | 1.68 | 0.00 | 58 | 1012.7 |
| 20260506164113 | 54 | 48 | 5.0 | 8.0 | 0.00 | 1.68 | 0.00 | 57 | 1012.8 |
| 20260506163613 | 53 | 38 | 6.0 | 8.0 | 0.00 | 1.68 | 0.00 | 60 | 1012.9 |
| 20260506163114 | 53 | 352 | 5.0 | 8.0 | 0.00 | 1.68 | 0.00 | 57 | 1012.9 |
| 20260506162613 | 54 | 18 | 3.0 | 8.0 | 0.00 | 1.68 | 0.00 | 62 | 1012.9 |
| 20260506162114 | 53 | 177 | 1.0 | 9.0 | 0.00 | 1.68 | 0.00 | 59 | 1012.8 |
| 20260506161613 | 52 | 315 | 3.0 | 9.0 | 0.00 | 1.68 | 0.00 | 61 | 1012.8 |
| 20260506161113 | 52 | 33 | 6.0 | 12.0 | 0.00 | 1.68 | 0.00 | 62 | 1012.8 |
| 20260506160613 | 53 | 43 | 3.0 | 6.0 | 0.00 | 1.68 | 0.00 | 62 | 1012.6 |
| 20260506155613 | 53 | 242 | 1.0 | 5.0 | 0.00 | 1.68 | 0.00 | 65 | 1012.4 |
| 20260506155113 | 52 | 61 | 3.0 | 6.0 | 0.00 | 1.68 | 0.00 | 65 | 1012.3 |
| 20260506154613 | 52 | 58 | 3.0 | 3.0 | 0.00 | 1.68 | 0.00 | 65 | 1012.3 |
| 20260506154113 | 52 | 204 | 2.0 | 3.0 | 0.00 | 1.68 | 0.00 | 67 | 1012.3 |
| 20260506153613 | 53 | 205 | 2.0 | 5.0 | 0.00 | 1.68 | 0.00 | 68 | 1012.3 |
| 20260506153113 | 51 | 165 | 2.0 | 6.0 | 0.00 | 1.68 | 0.00 | 70 | 1012.5 |
| 20260506152613 | 52 | 157 | 3.0 | 6.0 | 0.00 | 1.68 | 0.00 | 68 | 1012.4 |
| 20260506152113 | 52 | 345 | 3.0 | 6.0 | 0.00 | 1.68 | 0.00 | 70 | 1012.4 |
| 20260506151613 | 50 | 249 | 3.0 | 5.0 | 0.00 | 1.68 | 0.00 | 71 | 1012.4 |
| 20260506151113 | 50 | 222 | 3.0 | 5.0 | 0.00 | 1.68 | 0.00 | 71 | 1012.3 |
| 20260506150613 | 51 | 47 | 3.0 | 6.0 | 0.00 | 1.68 | 0.00 | 71 | 1012.2 |
| 20260506145613 | 50 | 269 | 2.0 | 6.0 | 0.00 | 1.68 | 0.00 | 73 | 1012.1 |
| 20260506145113 | 49 | 328 | 2.0 | 6.0 | 0.00 | 1.68 | 0.00 | 74 | 1012.0 |
| 20260506144613 | 49 | 31 | 6.0 | 8.0 | 0.00 | 1.68 | 0.00 | 73 | 1011.9 |
| 20260506143613 | 49 | 10 | 5.0 | 7.0 | 0.00 | 1.68 | 0.00 | 74 | 1011.7 |
| 20260506142613 | 48 | 52 | 3.0 | 5.0 | 0.00 | 1.68 | 0.00 | 76 | 1011.8 |
| 20260506142113 | 48 | 276 | 2.0 | 5.0 | 0.00 | 1.68 | 0.00 | 76 | 1011.6 |
| 20260506141613 | 48 | 353 | 3.0 | 6.0 | 0.00 | 1.68 | 0.00 | 76 | 1011.7 |
| 20260506141113 | 48 | 255 | 2.0 | 5.0 | 0.00 | 1.68 | 0.00 | 77 | 1011.7 |
| 20260506140613 | 47 | 217 | 1.0 | 3.0 | 0.00 | 1.68 | 0.00 | 77 | 1011.7 |
| 20260506140113 | 48 | 280 | 2.0 | 3.0 | 0.00 | 1.68 | 0.00 | 77 | 1011.8 |
| 20260506135113 | 44 | 32 | 3.0 | 7.0 | 0.00 | 1.68 | 0.00 | 82 | 1011.6 |
| 20260506134613 | 44 | 32 | 3.0 | 7.0 | 0.00 | 1.68 | 0.00 | 82 | 1011.6 |
| 20260506134113 | 44 | 32 | 3.0 | 7.0 | 0.00 | 1.68 | 0.00 | 82 | 1011.6 |
| 20260506133613 | 44 | 32 | 3.0 | 7.0 | 0.00 | 1.68 | 0.00 | 82 | 1011.6 |
| 20260506133113 | 44 | 32 | 3.0 | 7.0 | 0.00 | 1.68 | 0.00 | 82 | 1011.6 |
| 20260506132613 | 44 | 32 | 3.0 | 7.0 | 0.00 | 1.68 | 0.00 | 82 | 1011.5 |
| 20260506132113 | 44 | 32 | 3.0 | 7.0 | 0.00 | 1.68 | 0.00 | 82 | 1011.2 |
| 20260506131613 | 44 | 32 | 3.0 | 7.0 | 0.00 | 1.68 | 0.00 | 82 | 1011.3 |
| 20260506131113 | 44 | 32 | 3.0 | 7.0 | 0.00 | 1.68 | 0.00 | 82 | 1011.2 |
| 20260506130613 | 44 | 32 | 3.0 | 7.0 | 0.00 | 1.68 | 0.00 | 82 | 1011.1 |
| 20260506130113 | 44 | 48 | 2.0 | 2.0 | 0.00 | 1.68 | 0.00 | 88 | 1011.3 |
| 20260506125613 | 44 | 48 | 2.0 | 2.0 | 0.00 | 1.68 | 0.00 | 88 | 1011.2 |
| 20260506124613 | 44 | 48 | 2.0 | 2.0 | 0.00 | 1.68 | 0.00 | 88 | 1010.8 |
| 20260506124113 | 44 | 48 | 2.0 | 5.0 | 0.00 | 1.68 | 0.00 | 88 | 1010.7 |
| 20260506123613 | 43 | 347 | 3.0 | 5.0 | 0.00 | 1.68 | 0.00 | 90 | 1010.8 |
| 20260506123113 | 43 | 347 | 3.0 | 5.0 | 0.00 | 1.68 | 0.00 | 90 | 1010.5 |
| 20260506122612 | 43 | 347 | 3.0 | 5.0 | 0.00 | 1.68 | 0.00 | 90 | 1010.5 |
| 20260506122113 | 43 | 347 | 3.0 | 5.0 | 0.00 | 1.68 | 0.00 | 90 | 1010.4 |
| 20260506121613 | 43 | 347 | 3.0 | 5.0 | 0.00 | 1.68 | 0.00 | 90 | 1010.4 |
| 20260506121113 | 43 | 13 | 2.0 | 5.0 | 0.00 | 1.68 | 0.00 | 91 | 1010.3 |
| 20260506120613 | 43 | 20 | 2.0 | 5.0 | 0.00 | 1.68 | 0.00 | 91 | 1010.3 |
| 20260506120113 | 43 | 20 | 2.0 | 5.0 | 0.00 | 1.68 | 0.00 | 91 | 1010.4 |
| 20260506115613 | 42 | 190 | 0.0 | 0.0 | 0.00 | 1.68 | 0.00 | 95 | 1010.3 |
| 20260506115113 | 42 | 190 | 0.0 | 0.0 | 0.00 | 1.68 | 0.00 | 95 | 1010.2 |
| 20260506114613 | 42 | 190 | 0.0 | 0.0 | 0.00 | 1.68 | 0.00 | 95 | 1010.2 |
| 20260506114113 | 42 | 190 | 0.0 | 0.0 | 0.00 | 1.68 | 0.00 | 95 | 1010.0 |